Flag for Germany Weather past 2 weeks in Würzburg, Bavaria, Germany

Now
53 °F

Overcast.


Feels Like: 53 °F
Forecast: 40 / 68 °F
Wind: 2 mph from Northwest

Location: Wuerzburg

Current Time: May 27, 2015 at 9:13:07 PM

Latest Report: May 27, 2015 at 9:00 PM


Visibility: 41 mi

Pressure: 30.21 "Hg

Humidity: 52%

Dew point: 36 °F

Location of WürzburgLocation

Historic Weather in Würzburg — Graph

°F

Würzburg temperature yesterday

Maximum temperature yesterday: 59 °F (at 1:00 PM)
Minimum temperature yesterday: 49 °F (at 7:00 AM)
Average temperature yesterday: 54 °F

Past Weeks' High & Low Weather Summary

 TemperatureHumidityPressure
High77 °F (May 12, 8:00 PM)92% (May 25, 11:00 PM)30.38 "Hg (May 25, 11:00 PM)
Low40 °F (May 22, 6:00 AM)26% (May 15, 5:00 PM)29.71 "Hg (May 18, 8:00 PM)
Average57 °F59%30.07 "Hg
* Reported May 12 8:00 PM — May 27 8:00 PM, Würzburg, Weather by CustomWeather, © 2015

Note: Actual official high and low records may vary slightly from our data, if they occured in-between our weather recording intervals... More about our weather records

Advertising

Würzburg weather history for previous 24 hours

 ConditionsComfort  
Time TempWeatherWind HumidityBarometerVisibility
8:00 PM
Wed, May 27
55 °FOvercast.3 mph46%30.22 "Hg37 mi
7:00 PM56 °FOvercast.2 mph46%30.23 "Hg37 mi
6:00 PM56 °FOvercast.3 mph47%30.23 "Hg31 mi
5:00 PM56 °FOvercast.2 mph47%30.24 "Hg31 mi
4:00 PM55 °FOvercast.3 mph49%30.24 "Hg31 mi
3:00 PM55 °FOvercast.3 mph46%30.25 "Hg37 mi
2:00 PM54 °FOvercast.2 mph45%30.26 "Hg31 mi
1:00 PM54 °FOvercast.3 mph49%30.26 "Hg28 mi
12:00 PM53 °FOvercast.3 mph56%30.27 "Hg28 mi
11:00 AM52 °FOvercast.5 mph58%30.28 "Hg28 mi
10:00 AM52 °FOvercast.1 mph64%30.27 "Hg28 mi
9:00 AM51 °FOvercast.1 mph70%30.27 "Hg25 mi
8:00 AM49 °FPartly sunny.2 mph74%30.27 "Hg25 mi
7:00 AM46 °FScattered clouds.1 mph78%30.26 "Hg22 mi
6:00 AM45 °FPassing clouds.2 mph80%30.25 "Hg19 mi
5:00 AM45 °FPassing clouds.2 mph79%30.24 "Hg22 mi
4:00 AM47 °FOvercast.2 mph75%30.24 "Hg28 mi
3:00 AM49 °FOvercast.2 mph71%30.23 "Hg28 mi
2:00 AM50 °FOvercast.2 mph66%30.22 "Hg28 mi
1:00 AM51 °FOvercast.3 mph64%30.22 "Hg28 mi
12:00 AM51 °FOvercast.3 mph62%30.21 "Hg28 mi
11:00 PM
Tue, May 26
52 °FOvercast.2 mph60%30.20 "Hg37 mi
10:00 PM53 °FOvercast.3 mph55%30.19 "Hg37 mi
9:00 PM54 °FOvercast.3 mph53%30.16 "Hg37 mi
Weather by CustomWeather, © 2015

See weather overviewHow to use our weather pages